Location: Bats
(43.6587°N, 0.4584°W)
Time: 19:30:47
(UTC+00:00)

CZ-2D R/B - Pass Details

Date: 12 January 2026
Orbit: 526 x 595 km, 98.0° (Epoch: 13 February)

Event Time Altitude Azimuth Distance (km) Brightness Sun altitude
Rises 18:36:22 0° 172° (S) 2,691 6.9 -19.3°
Reaches altitude 10° 18:38:30 10° 175° (S) 1,794 6.0 -19.6°
Maximum altitude 18:42:21 66° 258° (WSW) 585 3.6 -20.3°
Drops below altitude 10° 18:46:10 10° 341° (NNW) 1,784 6.0 -21.0°
Sets 18:48:17 0° 345° (NNW) 2,674 6.9 -21.4°
